Location: Star Dogged Moon Observatory
(29.7756°N, 82.0783°W)
Time: 06:44:19
(UTC-04:00)

Amateur Radio Satellites - All Passes

Search period start: 23 May 2017 06:14
Search period end: 24 May 2017 06:14
Location: Star Dogged Moon Observatory, 29.7756°N, 82.0783°W

Satellite Date Start Highest point End Downlink Frequencies (MHz)
Time Altitude Azimuth
ISS 23 May 06:17:07 06:20:23 83° 47° (NE) 06:23:37 437.550
AO-7 23 May 06:21:45 06:28:52 33° 296° (WNW) 06:35:59 .
AO-85 23 May 06:23:23 06:27:29 43° 299° (WNW) 06:31:23 145.980
Tancredo 1 23 May 06:25:16 06:28:07 37° 230° (SW) 06:30:58 437.200
DOVE 4 23 May 06:30:55 06:34:19 24° 97° (E) 06:37:46 437.250
RS-15 23 May 06:32:13 06:39:09 16° 326° (NNW) 06:46:10 29.354- 29.394
SRMSAT 23 May 06:36:11 06:39:31 15° 162° (SSE) 06:42:49 437.500
BEESAT 3 23 May 06:41:13 06:45:06 77° 116° (ESE) 06:49:05 437.485
LilacSat-2 23 May 06:45:04 06:47:50 19° 96° (E) 06:50:34 437.200
PCSat 23 May 06:50:13 06:55:38 76° 248° (WSW) 07:01:01 145.827
XW-2D 23 May 07:23:26 07:27:16 64° 100° (E) 07:31:03 145.860 - 145.880
CUTE-I 23 May 07:23:30 07:28:39 48° 100° (E) 07:33:48 437.470
XW-2B 23 May 07:31:15 07:35:06 80° 101° (ESE) 07:38:55 145.730 - 145.750
STRAND 1 23 May 07:32:45 07:37:11 31° 71° (ENE) 07:41:38 437.568
XW-2C 23 May 07:44:44 07:48:33 63° 283° (WNW) 07:52:20 145.795 - 145.815
XW-2F 23 May 07:46:50 07:50:38 62° 284° (WNW) 07:54:24 145.980 - 146.000
BEESAT 2 23 May 07:49:23 07:53:11 46° 299° (WNW) 07:57:03 435.950
JUGNU 23 May 07:51:24 07:56:37 31° 183° (S) 08:01:51 437.505
NUDT-PHONESAT 23 May 07:58:30 08:02:11 53° 284° (WNW) 08:05:50 437.300
XW-2A 23 May 07:59:56 08:01:36 13° 95° (E) 08:03:16 145.665 - 145.685
KAITUO 1B 23 May 08:01:24 08:05:03 47° 284° (WNW) 08:08:42 145.475/437.950
M-CUBED/EXP-1 PRIME 23 May 08:03:26 08:06:17 17° 67° (ENE) 08:09:03 437.505
DOVE 4 23 May 08:08:54 08:11:50 19° 288° (WNW) 08:14:48 437.250
LilacSat-2 23 May 08:19:02 08:21:57 21° 288° (WNW) 08:24:52 437.200
HO-68 23 May 08:19:45 08:26:29 42° 100° (E) 08:33:11 435.675
SRMSAT 23 May 08:23:13 08:28:09 27° 171° (S) 08:33:04 437.500
CUBEBUG 2 23 May 08:25:22 08:28:38 19° 96° (E) 08:31:56 437.445
CUTE 1.7 + AOD 2 23 May 08:28:17 08:32:21 43° 99° (E) 08:36:22 437.475
UWE-3 23 May 08:44:17 08:47:27 18° 95° (E) 08:50:37 435.000/436.395/437.385
NO-84 23 May 08:57:16 09:00:25 19° 122° (ESE) 09:03:34 435.350 FM
AAUSAT CUBESAT 2 23 May 09:01:48 09:05:24 28° 97° (E) 09:08:57 437.432
CUTE-I 23 May 09:05:03 09:08:14 16° 293° (WNW) 09:11:26 437.470
STRAND 1 23 May 09:12:24 09:16:18 22° 264° (W) 09:20:13 437.568
SO-50 23 May 09:21:46 09:26:13 58° 61° (ENE) 09:30:41 436.795
SEEDS 23 May 09:25:10 09:29:17 54° 284° (WNW) 09:33:22 437.485
XW-2A 23 May 09:31:34 09:34:16 22° 287° (WNW) 09:36:58 145.665 - 145.685
Oscar 11 23 May 09:32:53 09:36:25 24° 97° (E) 09:39:55 .
M-CUBED/EXP-1 PRIME 23 May 09:36:26 09:40:27 32° 256° (WSW) 09:44:17 437.505
JUGNU 23 May 09:40:36 09:45:10 23° 193° (SSW) 09:49:43 437.505
AO-73 23 May 09:53:53 09:58:23 60° 101° (E) 10:02:54 145.935
CUBEBUG 2 23 May 10:01:10 10:05:11 30° 287° (WNW) 10:09:15 437.445
ZACube-1 23 May 10:05:26 10:10:01 86° 279° (W) 10:14:35 437.345
CUTE 1.7 + AOD 2 23 May 10:06:21 10:07:43 11° 292° (WNW) 10:09:06 437.475
HO-68 23 May 10:07:52 10:13:53 30° 294° (WNW) 10:19:54 435.675
SRMSAT 23 May 10:11:41 10:16:53 32° 181° (S) 10:22:04 437.500
UWE-3 23 May 10:19:48 10:23:50 32° 287° (WNW) 10:27:56 435.000/436.395/437.385
TIGRISAT 23 May 10:30:17 10:34:15 40° 74° (ENE) 10:38:16 435.000
NO-84 23 May 10:33:42 10:37:49 39° 313° (NW) 10:41:51 435.350 FM
AAUSAT CUBESAT 2 23 May 10:38:04 10:40:33 16° 290° (WNW) 10:43:04 437.432
PRISM 23 May 10:43:25 10:47:34 81° 258° (WSW) 10:51:43 437.425
FO-29 23 May 10:48:39 10:53:55 72° 76° (ENE) 10:59:05 435.910
EO-88 23 May 10:57:09 11:00:41 44° 99° (E) 11:04:11 145.990 - 145.960
UNISAT 6 23 May 11:00:33 11:04:46 72° 259° (WSW) 11:09:03 437.425
Oscar 11 23 May 11:09:06 11:12:21 21° 289° (WNW) 11:15:35 .
RS-15 23 May 11:10:47 11:19:56 24° 42° (NE) 11:28:44 29.354- 29.394
DELFI C3 23 May 11:30:47 11:34:26 39° 285° (WNW) 11:38:05 145.870
POLYITAN 1 23 May 11:32:17 11:33:49 12° 68° (ENE) 11:35:22 437.675
NANOSAT C BR1 23 May 11:32:32 11:33:02 10° 68° (ENE) 11:33:32 145.865
JUGNU 23 May 11:32:34 11:33:37 10° 200° (SSW) 11:34:41 437.505
QB50P2 23 May 11:39:31 11:42:09 17° 70° (ENE) 11:44:49 145.880/145.840
DUCHIFAT 1 23 May 11:43:51 11:45:48 13° 69° (ENE) 11:47:45 145.980
LO-87 23 May 11:53:30 11:56:27 24° 97° (E) 11:59:24 145.935 - 145.965
SRMSAT 23 May 12:00:52 12:05:35 25° 191° (S) 12:10:18 437.500
TIGRISAT 23 May 12:09:48 12:11:04 11° 266° (W) 12:12:21 435.000
EO-79 23 May 12:16:34 12:20:32 44° 75° (ENE) 12:24:31 145.935-145.965
YUBILEINY 23 May 12:23:47 12:30:06 21° 73° (ENE) 12:36:22 435.215
ESTCUBE 1 23 May 12:24:09 12:28:18 35° 99° (E) 12:32:23 437.505/2401.250
AIST 2D 23 May 12:31:24 12:34:43 41° 261° (W) 12:38:04 435.315
Oscar 19 23 May 13:00:43 13:02:55 13° 66° (ENE) 13:05:08 437.125/150
NANOSAT C BR1 23 May 13:04:16 13:08:15 46° 260° (W) 13:12:16 145.865
POLYITAN 1 23 May 13:05:16 13:09:10 40° 261° (W) 13:13:08 437.675
QB50P2 23 May 13:14:03 13:17:40 28° 262° (W) 13:21:19 145.880/145.840
DUCHIFAT 1 23 May 13:17:17 13:21:05 35° 261° (W) 13:24:55 145.980
RS-15 23 May 13:22:01 13:34:09 89° 60° (ENE) 13:45:36 29.354- 29.394
LO-87 23 May 13:27:58 13:29:36 13° 289° (WNW) 13:31:15 145.935 - 145.965
50 SAT 23 May 13:35:16 13:38:02 23° 97° (E) 13:40:46 437.505
VELOX 1 23 May 13:36:15 13:40:35 58° 101° (E) 13:44:52 145.980
Gurwin Techsat 1B 23 May 13:45:46 13:49:49 23° 69° (ENE) 13:53:52 435.225
BUGSAT 1 23 May 13:50:30 13:54:23 50° 260° (W) 13:58:17 437.445
SRMSAT 23 May 13:51:47 13:54:11 13° 199° (SSW) 13:56:37 437.500
SPROUT 23 May 13:58:53 14:03:08 68° 284° (WNW) 14:07:23 437.525
ESTCUBE 1 23 May 14:02:04 14:04:44 16° 291° (WNW) 14:07:24 437.505/2401.250
YUBILEINY 23 May 14:18:41 14:27:23 65° 268° (W) 14:36:04 435.215
DX 1 23 May 14:23:58 14:28:17 70° 102° (ESE) 14:32:34 434.975-435.025
UKube-1 23 May 14:24:05 14:28:12 44° 100° (E) 14:32:18 .
Oscar 19 23 May 14:36:33 14:41:39 59° 259° (W) 14:46:48 437.125/150
AO-85 23 May 14:59:58 15:03:24 25° 58° (ENE) 15:06:59 145.980
50 SAT 23 May 15:09:14 15:10:37 12° 290° (WNW) 15:12:00 437.505
AO-7 23 May 15:21:14 15:28:37 38° 65° (ENE) 15:36:01 .
Gurwin Techsat 1B 23 May 15:24:44 15:29:29 34° 262° (W) 15:34:17 435.225
ITAMSAT 1 23 May 15:30:47 15:35:17 31° 71° (ENE) 15:39:49 435.822/435.867
RS-15 23 May 15:38:10 15:44:50 17° 261° (W) 15:51:22 29.354- 29.394
BEESAT 23 May 15:45:23 15:49:27 27° 98° (E) 15:53:30 436.000
O/OREOS (USA 219) 23 May 15:53:13 15:57:43 77° 253° (WSW) 16:02:10 437.305
MOZHAYETS 4 23 May 16:00:10 16:03:38 21° 96° (E) 16:07:05
UKube-1 23 May 16:02:18 16:03:46 12° 293° (WNW) 16:05:13 .
BEESAT 2 23 May 16:13:34 16:16:03 16° 54° (NE) 16:18:32 435.950
AO-85 23 May 16:40:28 16:43:37 21° 249° (WSW) 16:46:55 145.980
BEESAT 3 23 May 16:40:49 16:44:48 77° 245° (WSW) 16:48:43 437.485
ITUPSAT 1 23 May 16:46:27 16:51:11 59° 285° (WNW) 16:55:54 437.325
ITAMSAT 1 23 May 17:10:42 17:14:41 23° 263° (W) 17:18:42 435.822/435.867
AO-7 23 May 17:13:37 17:21:10 39° 259° (W) 17:28:47 .
KKS-1 23 May 17:19:27 17:22:45 20° 97° (E) 17:26:02 437.445
BEESAT 23 May 17:23:18 17:27:01 23° 290° (WNW) 17:30:43 436.000
DOVE 4 23 May 17:31:33 17:34:07 15° 70° (ENE) 17:36:36 437.250
MOZHAYETS 4 23 May 17:36:46 17:40:42 28° 288° (WNW) 17:44:37
BEESAT 2 23 May 17:50:14 17:53:51 32° 248° (WSW) 17:57:26 435.950
STARS 23 May 18:00:08 18:03:43 24° 97° (E) 18:07:17 437.465
XW-2D 23 May 18:00:33 18:02:18 13° 70° (ENE) 18:04:04 145.860 - 145.880
XW-2B 23 May 18:07:48 18:10:05 16° 71° (ENE) 18:12:24 145.730 - 145.750
CUBESAT XI-V 23 May 18:12:39 18:17:17 72° 283° (WNW) 18:21:51 437.345
XW-2C 23 May 18:20:27 18:23:29 23° 73° (ENE) 18:26:33 145.795 - 145.815
XW-2F 23 May 18:22:09 18:25:11 23° 73° (ENE) 18:28:14 145.980 - 146.000
NUDT-PHONESAT 23 May 18:32:07 18:35:09 24° 73° (ENE) 18:38:12 437.300
KAITUO 1B 23 May 18:35:30 18:38:43 28° 74° (ENE) 18:41:58 145.475/437.950
CUTE-I 23 May 18:39:24 18:44:24 44° 73° (ENE) 18:49:24 437.470
HO-68 23 May 18:44:19 18:48:31 17° 62° (ENE) 18:52:43 435.675
NO-84 23 May 18:50:39 18:54:02 71° 233° (SW) 18:57:06 435.350 FM
LilacSat-2 23 May 18:53:42 18:57:30 77° 78° (ENE) 19:01:20 437.200
KKS-1 23 May 18:55:32 18:59:11 26° 289° (WNW) 19:02:50 437.445
DOVE 4 23 May 19:06:54 19:11:28 41° 260° (W) 19:15:49 437.250
CUTE 1.7 + AOD 2 23 May 19:16:17 19:18:42 15° 70° (ENE) 19:21:07 437.475
XW-2D 23 May 19:32:51 19:36:09 29° 262° (W) 19:39:30 145.860 - 145.880
STARS 23 May 19:36:33 19:39:51 21° 289° (WNW) 19:43:10 437.465
XW-2B 23 May 19:40:56 19:44:02 24° 263° (W) 19:47:08 145.730 - 145.750
PCSat 23 May 19:43:00 19:47:48 33° 108° (ESE) 19:52:37 145.827
STRAND 1 23 May 19:49:59 19:53:22 18° 95° (E) 19:56:46 437.568
XW-2C 23 May 19:55:17 19:57:35 15° 265° (W) 19:59:55 145.795 - 145.815
XW-2A 23 May 19:56:21 19:59:26 37° 75° (ENE) 20:02:33 145.665 - 145.685
XW-2F 23 May 19:56:56 19:59:14 15° 265° (W) 20:01:32 145.980 - 146.000
NUDT-PHONESAT 23 May 20:07:02 20:08:59 14° 265° (W) 20:10:59 437.300
SEEDS 23 May 20:10:24 20:14:24 43° 75° (ENE) 20:18:26 437.485
KAITUO 1B 23 May 20:11:05 20:12:43 12° 266° (W) 20:14:21 145.475/437.950
CUTE-I 23 May 20:21:12 20:24:33 17° 265° (W) 20:27:53 437.470
HO-68 23 May 20:28:17 20:35:26 74° 257° (WSW) 20:42:37 435.675
AO-73 23 May 20:44:18 20:47:23 20° 71° (ENE) 20:50:31 145.935
CUTE 1.7 + AOD 2 23 May 20:50:20 20:54:11 33° 262° (W) 20:58:04 437.475
CUBEBUG 2 23 May 20:52:47 20:56:53 75° 259° (WSW) 21:01:03 437.445
ZACube-1 23 May 20:55:33 20:59:14 32° 73° (ENE) 21:02:59 437.345
UWE-3 23 May 21:10:13 21:14:21 81° 259° (W) 21:18:33 435.000/436.395/437.385
ISS 23 May 21:16:25 21:19:33 43° 130° (SE) 21:22:42 437.550
Tancredo 1 23 May 21:17:29 21:20:32 88° 134° (SE) 21:23:36 437.200
AAUSAT CUBESAT 2 23 May 21:20:15 21:24:19 53° 260° (W) 21:28:26 437.432
M-CUBED/EXP-1 PRIME 23 May 21:21:17 21:23:52 22° 102° (ESE) 21:26:27 437.505
PCSat 23 May 21:26:46 21:31:09 25° 302° (WNW) 21:35:35 145.827
STRAND 1 23 May 21:27:50 21:32:36 40° 287° (WNW) 21:37:22 437.568
SEEDS 23 May 21:49:12 21:50:12 11° 267° (W) 21:51:13 437.485
Oscar 11 23 May 21:56:30 22:00:44 58° 260° (W) 22:05:01 .
FO-29 23 May 22:04:27 22:07:55 14° 95° (E) 22:11:32 435.910
DELFI C3 23 May 22:09:38 22:13:26 44° 75° (ENE) 22:17:15 145.870
AO-73 23 May 22:20:11 22:23:26 22° 264° (W) 22:26:46 145.935
TIGRISAT 23 May 22:28:32 22:31:15 15° 95° (E) 22:33:58 435.000
PRISM 23 May 22:31:25 22:34:30 21° 97° (E) 22:37:33 437.425
ZACube-1 23 May 22:33:20 22:35:33 14° 266° (W) 22:37:47 437.345
ISS 23 May 22:54:24 22:56:12 14° 324° (NW) 22:58:00 437.550
M-CUBED/EXP-1 PRIME 23 May 22:56:50 22:58:06 12° 294° (WNW) 22:59:22 437.505
UNISAT 6 23 May 22:57:51 23:02:09 38° 99° (E) 23:06:29 437.425
EO-88 23 May 23:02:11 23:05:39 43° 261° (W) 23:09:10 145.990 - 145.960
ESTCUBE 1 23 May 23:18:47 23:21:37 17° 69° (ENE) 23:24:28 437.505/2401.250
SO-50 23 May 23:29:50 23:34:27 80° 114° (ESE) 23:39:01 436.795
FO-29 23 May 23:46:33 23:53:05 76° 284° (WNW) 00:00:24 435.910
LO-87 23 May 23:56:06 23:59:39 85° 258° (WSW) 00:03:13 145.935 - 145.965
AIST 2D 24 May 00:02:46 00:05:27 20° 96° (E) 00:08:07 435.315
TIGRISAT 24 May 00:03:42 00:07:56 37° 286° (WNW) 00:12:14 435.000
PRISM 24 May 00:06:34 00:09:37 21° 289° (WNW) 00:12:38 437.425
EO-79 24 May 00:09:07 00:10:40 12° 94° (E) 00:12:12 145.935-145.965
VELOX 1 24 May 00:27:58 00:31:32 24° 71° (ENE) 00:35:05 145.980
UNISAT 6 24 May 00:35:45 00:38:30 16° 290° (WNW) 00:41:16 437.425
SPROUT 24 May 00:46:09 00:50:04 39° 74° (ENE) 00:54:00 437.525
ESTCUBE 1 24 May 00:53:58 00:58:05 34° 262° (W) 01:02:13 437.505/2401.250
NANOSAT C BR1 24 May 00:54:15 00:58:16 41° 100° (E) 01:02:16 145.865
POLYITAN 1 24 May 00:55:35 00:59:44 49° 100° (E) 01:03:53 437.675
QB50P2 24 May 01:03:58 01:08:14 71° 102° (ESE) 01:12:29 145.880/145.840
DUCHIFAT 1 24 May 01:06:38 01:10:46 53° 100° (E) 01:14:55 145.980
UKube-1 24 May 01:13:35 01:16:28 18° 70° (ENE) 01:19:22 .
DX 1 24 May 01:13:49 01:17:30 27° 72° (ENE) 01:21:11 434.975-435.025
YUBILEINY 24 May 01:16:51 01:24:01 30° 86° (E) 01:31:11 435.215
RS-15 24 May 01:27:55 01:36:15 22° 101° (E) 01:44:44 29.354- 29.394
50 SAT 24 May 01:33:29 01:36:57 84° 74° (ENE) 01:40:25 437.505
AIST 2D 24 May 01:36:13 01:38:27 16° 288° (WNW) 01:40:39 435.315
BUGSAT 1 24 May 01:37:55 01:41:41 33° 99° (E) 01:45:28 437.445
EO-79 24 May 01:42:31 01:46:30 40° 286° (WNW) 01:50:29 145.935-145.965
VELOX 1 24 May 02:04:27 02:07:50 22° 263° (W) 02:11:15 145.980
Gurwin Techsat 1B 24 May 02:08:51 02:11:35 14° 94° (E) 02:14:18 435.225
SPROUT 24 May 02:24:28 02:26:03 12° 266° (W) 02:27:38 437.525
NANOSAT C BR1 24 May 02:31:56 02:33:33 12° 291° (WNW) 02:35:10 145.865
POLYITAN 1 24 May 02:34:19 02:35:02 10° 292° (WNW) 02:35:45 437.675
BEESAT 24 May 02:46:53 02:49:51 17° 68° (ENE) 02:52:49 436.000
UKube-1 24 May 02:48:31 02:52:14 28° 262° (W) 02:55:57 .
DX 1 24 May 02:50:35 02:53:36 18° 264° (W) 02:56:38 434.975-435.025
Oscar 19 24 May 02:54:09 02:59:20 81° 102° (ESE) 03:04:27 437.125/150
YUBILEINY 24 May 03:12:07 03:20:20 46° 281° (W) 03:28:40 435.215
BUGSAT 1 24 May 03:14:33 03:16:43 14° 290° (WNW) 03:18:52 437.445
AO-7 24 May 03:31:24 03:36:06 16° 95° (E) 03:40:48 .
RS-15 24 May 03:35:21 03:47:19 79° 297° (WNW) 03:59:45 29.354- 29.394
Gurwin Techsat 1B 24 May 03:46:34 03:51:42 52° 287° (WNW) 03:56:51 435.225
ITUPSAT 1 24 May 03:46:48 03:51:34 80° 75° (ENE) 03:56:20 437.325
ITAMSAT 1 24 May 03:50:16 03:53:50 18° 96° (E) 03:57:23 435.822/435.867
JUGNU 24 May 04:00:19 04:04:23 19° 165° (SSE) 04:08:27 437.505
O/OREOS (USA 219) 24 May 04:20:49 04:24:36 25° 102° (ESE) 04:28:22 437.305
BEESAT 24 May 04:22:52 04:27:16 38° 261° (W) 04:31:41 436.000
MOZHAYETS 4 24 May 04:31:39 04:36:10 59° 260° (W) 04:40:43
STARS 24 May 04:53:35 04:54:24 10° 67° (ENE) 04:55:13 437.465
AO-85 24 May 05:08:30 05:12:26 34° 113° (ESE) 05:16:11 145.980
CUBESAT XI-V 24 May 05:09:27 05:14:02 54° 75° (ENE) 05:18:38 437.345
AO-7 24 May 05:21:03 05:29:25 80° 288° (WNW) 05:37:47 .
Tancredo 1 24 May 05:22:39 05:25:41 57° 46° (NE) 05:28:40 437.200
ISS 24 May 05:25:17 05:28:20 35° 43° (NE) 05:31:21 437.550
ITAMSAT 1 24 May 05:28:32 05:33:20 39° 288° (WNW) 05:38:09 435.822/435.867
KKS-1 24 May 05:46:36 05:50:58 60° 259° (WSW) 05:55:21 437.445
JUGNU 24 May 05:47:46 05:52:53 30° 174° (S) 05:58:01 437.505
O/OREOS (USA 219) 24 May 06:00:19 06:03:53 22° 295° (WNW) 06:07:28 437.305
BEESAT 2 24 May 06:01:42 06:01:48 10° 107° (ESE) 06:01:55 435.950
